Weather History for KHEI - January, 2014

Change the Weather History Date:

Sunday, January 26, 2014

  Actual Average Record
Temperature  
Mean Temperature 17 °F -  
Max Temperature 37 °F 29 °F 54 °F (2002)
Min Temperature -4 °F 6 °F -17 °F (2003)
Degree Days  
Heating Degree Days 48 48  
Month to date heating degree days 1183 1263  
Since 1 July heating degree days 4905 4842  
Moisture  
Dew Point 4 °F    
Average Humidity 69    
Maximum Humidity 80    
Minimum Humidity 55    
Precipitation  
Precipitation 0.03 in 0.02 in 0.03 in (2014)
Month to date precipitation 0.10 0.26  
Year to date precipitation 0.10 0.26  
Sea Level Pressure  
Sea Level Pressure 29.97 in    
Wind  
Wind Speed 30 mph (NW)    
Max Wind Speed 51 mph    
Max Gust Speed 63 mph    
Visibility 7 miles    
Events Fog , Snow    
T = Trace of Precipitation, MM = Missing Value Source: NWS Daily Summary

Daily Weather History Graph

Daily Weather History Graph

Search for Another Location

Airport or City:

Trip Planner

Search our weather history database for the weather conditions in past years. The results will help you decide how hot, cold, wet, or windy it might be!

Date:

Astronomy

Jan. 26, 2014 Rise Set
Actual Time 7:19 AM MST 4:47 PM MST
Civil Twilight 6:47 AM MST 5:19 PM MST
Nautical Twilight 6:10 AM MST 5:56 PM MST
Astronomical Twilight 5:35 AM MST 6:31 PM MST
Moon 3:00 AM MST (1/26) 12:36 PM MST (1/26)
Length of Visible Light 10h 32m
Length of Day
9h 27m
Waning Crescent, 23% of the Moon is Illuminated
Jan 26
Waning Crescent
Jan 30
New
Feb 6
First Quarter
Feb 14
Full
Feb 22
Last Quarter

Hourly Weather History & Observations

Time (MST) Temp. Windchill Dew Point Humidity Pressure Visibility Wind Dir Wind Speed Gust Speed Precip Events Conditions
12:53 AM 37.0 °F 24.9 °F 28.0 °F 70% 29.69 in 10.0 mi WNW 27.6 mph 36.8 mph N/A   Overcast
1:53 AM 37.0 °F 23.9 °F 28.0 °F 70% 29.68 in 10.0 mi NW 33.4 mph 40.3 mph N/A   Overcast
2:53 AM 36.0 °F 22.6 °F 28.9 °F 76% 29.65 in 10.0 mi WNW 32.2 mph 42.6 mph N/A   Mostly Cloudy
3:53 AM 35.1 °F 23.0 °F 28.0 °F 76% 29.62 in 10.0 mi WNW 24.2 mph 33.4 mph N/A   Clear
4:53 AM 35.1 °F 22.7 °F 28.0 °F 76% 29.59 in 10.0 mi WNW 25.3 mph 34.5 mph N/A   Clear
5:53 AM 36.0 °F 21.8 °F 28.0 °F 73% 29.56 in 10.0 mi WNW 36.8 mph 47.2 mph N/A   Overcast
6:53 AM 37.0 °F 23.9 °F 28.0 °F 70% 29.57 in 10.0 mi WNW 33.4 mph 46.0 mph N/A   Overcast
7:12 AM 26.1 °F 7.7 °F 21.0 °F 81% 29.59 in 3.0 mi North 39.1 mph 61.0 mph 0.00 in Snow Light Snow
7:17 AM 23.0 °F 3.7 °F 18.0 °F 81% 29.61 in 1.5 mi North 38.0 mph 54.1 mph 0.00 in Snow Light Snow
7:25 AM 21.0 °F 1.4 °F 17.1 °F 85% 29.63 in 0.5 mi North 35.7 mph 55.2 mph 0.00 in Fog , Snow Snow
7:36 AM 21.0 °F 1.2 °F 16.0 °F 81% 29.64 in 2.5 mi North 36.8 mph 47.2 mph 0.00 in Snow Light Snow
7:43 AM 19.9 °F -0.3 °F 12.0 °F 71% 29.65 in 7.0 mi North 36.8 mph 51.8 mph 0.02 in Snow Light Snow
7:53 AM 19.0 °F -0.8 °F 12.9 °F 77% 29.75 in 3.0 mi North 33.4 mph 43.7 mph 0.02 in Snow Light Snow
7:55 AM 18.0 °F -2.0 °F 12.9 °F 81% 29.67 in 1.8 mi North 32.2 mph 43.7 mph 0.00 in Snow Light Snow
8:05 AM 18.0 °F -1.4 °F 12.9 °F 81% 29.69 in 1.5 mi North 29.9 mph 40.3 mph 0.00 in Snow Light Snow
8:14 AM 17.1 °F -3.8 °F 10.9 °F 77% 29.70 in 1.8 mi North 34.5 mph 46.0 mph 0.00 in Snow Light Snow
8:18 AM 16.0 °F -4.4 °F 12.0 °F 84% 29.70 in 0.8 mi North 31.1 mph 46.0 mph 0.00 in Snow Light Snow
8:39 AM 17.1 °F -1.4 °F 10.9 °F 77% 29.71 in 1.8 mi NNW 25.3 mph 36.8 mph 0.00 in Snow Blowing Snow
8:53 AM 17.1 °F -1.0 °F 12.0 °F 81% 29.81 in 1.5 mi NNW 24.2 mph 35.7 mph 0.00 in Snow Light Snow
8:58 AM 17.1 °F -1.0 °F 12.0 °F 81% 29.72 in 3.0 mi NNW 24.2 mph 35.7 mph 0.00 in Snow Light Snow
9:11 AM 17.1 °F -1.0 °F 12.0 °F 81% 29.73 in 1.8 mi NNW 24.2 mph 35.7 mph 0.00 in Snow Light Snow
9:36 AM 17.1 °F -0.6 °F 10.0 °F 74% 29.77 in 3.0 mi NNW 23.0 mph 34.5 mph 0.00 in Snow Light Snow
9:53 AM 16.0 °F -2.8 °F 9.0 °F 74% 29.89 in 2.0 mi NNW 25.3 mph 33.4 mph 0.00 in Snow Light Snow
10:01 AM 18.0 °F -2.3 °F 7.0 °F 62% 29.80 in 3.0 mi NNW 33.4 mph 40.3 mph 0.00 in Snow Light Snow
10:53 AM 14.0 °F -9.6 °F -0.9 °F 52% 29.99 in 10.0 mi NNW 41.4 mph 58.7 mph 0.00 in Snow Light Snow
11:53 AM 10.0 °F -14.0 °F -2.9 °F 56% 30.05 in 10.0 mi NNW 36.8 mph 49.5 mph 0.00 in   Overcast
12:53 PM 7.0 °F -18.3 °F -5.1 °F 58% 30.12 in 10.0 mi NW 36.8 mph 51.8 mph 0.01 in   Overcast
1:53 PM 6.1 °F -20.3 °F -7.1 °F 55% 30.16 in 10.0 mi NNW 40.3 mph 52.9 mph N/A   Overcast
2:14 PM 6.1 °F -19.2 °F -6.0 °F 58% 30.06 in 7.0 mi NNW 35.7 mph 48.3 mph 0.00 in   Overcast
2:44 PM 3.9 °F -22.2 °F -9.0 °F 55% 30.10 in 10.0 mi NW 35.7 mph 44.9 mph 0.00 in   Mostly Cloudy
2:53 PM 3.0 °F -22.8 °F -9.0 °F 57% 30.23 in 10.0 mi NNW 33.4 mph 43.7 mph 0.00 in   Mostly Cloudy
3:27 PM 1.9 °F -23.9 °F -9.0 °F 60% 30.14 in 10.0 mi NW 32.2 mph 42.6 mph N/A   Mostly Cloudy
3:53 PM 3.0 °F -20.6 °F -9.0 °F 57% 30.29 in 10.0 mi NW 26.5 mph 36.8 mph N/A   Mostly Cloudy
4:22 PM 1.9 °F -21.6 °F -7.1 °F 66% 30.16 in 10.0 mi NNW 25.3 mph 32.2 mph N/A   Mostly Cloudy
4:37 PM 1.9 °F -23.6 °F -11.0 °F 55% 30.17 in 10.0 mi NW 31.1 mph 40.3 mph N/A   Scattered Clouds
4:46 PM 1.9 °F -22.4 °F -9.0 °F 60% 30.17 in 10.0 mi NW 27.6 mph 36.8 mph N/A   Mostly Cloudy
4:53 PM 1.9 °F -23.6 °F -9.9 °F 58% 30.31 in 10.0 mi NW 31.1 mph 41.4 mph N/A   Mostly Cloudy
5:53 PM -0.0 °F -25.9 °F -11.0 °F 60% 30.35 in 10.0 mi NW 29.9 mph 40.3 mph N/A   Scattered Clouds
6:53 PM -0.0 °F -23.8 °F -9.9 °F 63% 30.37 in 10.0 mi NW 24.2 mph 35.7 mph N/A   Clear
7:14 PM -0.0 °F -25.1 °F -9.0 °F 66% 30.24 in 8.0 mi NW 27.6 mph 36.8 mph 0.00 in   Mostly Cloudy
7:22 PM -0.9 °F -27.5 °F -11.0 °F 62% 30.24 in 10.0 mi NW 31.1 mph 42.6 mph 0.00 in   Scattered Clouds
7:53 PM -0.9 °F -26.7 °F -11.0 °F 62% 30.42 in 10.0 mi NW 28.8 mph 41.4 mph 0.00 in   Clear
8:53 PM -0.9 °F -24.1 °F -9.9 °F 66% 30.43 in 10.0 mi NW 21.9 mph - N/A   Clear
9:27 PM -2.0 °F -27.3 °F -9.9 °F 69% 30.27 in 10.0 mi NW 26.5 mph 29.9 mph N/A   Mostly Cloudy
9:53 PM -2.0 °F -26.4 °F -9.9 °F 69% 30.45 in 10.0 mi NNW 24.2 mph 31.1 mph N/A   Mostly Cloudy
10:38 PM -2.9 °F -22.4 °F -9.9 °F 72% 30.28 in 10.0 mi NW 13.8 mph - N/A   Scattered Clouds
10:53 PM -2.9 °F -25.0 °F -11.0 °F 68% 30.47 in 10.0 mi NW 18.4 mph 26.5 mph N/A   Clear
11:53 PM -4.0 °F -27.0 °F -13.0 °F 65% 30.48 in 10.0 mi NW 19.6 mph 29.9 mph N/A   Clear